Regional Weather Roundup
Issued by NWS Upton, NY

Home | Current Version | Previous Version | Text Only | Print | Product List | Glossary On
Versions: 1 2 3 4 5 6 7 8 9 10 11 12 13 14 15 16 17 18 19 20 21 22 23 24 25 26 27 28 29 30 31 32 33 34 35 36 37 38 39 40 41 42 43 44 45 46 47 48 49 50
000
ASUS41 KOKX 252205
RWROKX

REGIONAL WEATHER ROUNDUP
NATIONAL WEATHER SERVICE NEW YORK NY
600 PM EDT WED MAY 25 2016

NOTE: "FAIR" INDICATES FEW OR NO CLOUDS BELOW 12,000 FEET WITH NO
SIGNIFICANT WEATHER AND/OR OBSTRUCTIONS TO VISIBILITY.

NYZ071-072-176-178-NJZ106-104-252300-
NEW YORK CITY METRO AREA


CITY           SKY/WX    TMP DP  RH WIND       PRES   REMARKS
CENTRAL PARK   SUNNY     85  44  23 VRB5      30.05S
LAGUARDIA APRT MOSUNNY   90  48  23 SW8       30.02R
KENNEDY INTL   MOSUNNY   77  52  41 S10       30.04R
NEWARK/LIBERTY MOSUNNY   88  39  17 W14G22    30.02S
BRNX BOT. GARD   N/A     88  41  19 W10       30.03F
TETERBORO      SUNNY     88  40  18 SW13      30.00S
$$

NYZ177-179-078>081-252300-
LONG ISLAND NEW YORK

CITY           SKY/WX    TMP DP  RH WIND       PRES   REMARKS
FARMINGDALE    SUNNY     79  51  37 SW12      30.04R
ISLIP          MOSUNNY   78  51  38 SW12      30.03R
SHIRLEY        SUNNY     79  52  38 SW10      30.05R
RIVERHEAD        N/A     84  54  34 SW3       30.02R
WESTHAMPTON    NOT AVBL
EAST HAMPTON   FAIR      77  52  41 SW8       30.02S
MONTAUK POINT    N/A     72  57  59 VRB3      30.03R
$$

NYZ052-065-067-252300-
HUDSON VALLEY

CITY           SKY/WX    TMP DP  RH WIND       PRES   REMARKS
WHITE PLAINS   SUNNY     86  44  23 SW5       30.03R
NEWBURGH       MOSUNNY   86  50  28 W9        30.02S
MONTGOMERY     MOSUNNY   88  51  28 VRB5      30.00S
POUGHKEEPSIE   CLOUDY    88  47  24 SW8       29.98S
ALBANY         MOSUNNY   84  52  33 W12G17    29.99F
$$

NJZ001-105-106-008-010-013-015-019>022-104-252300-
NEW JERSEY

CITY           SKY/WX    TMP DP  RH WIND       PRES   REMARKS
NEWARK/LIBERTY MOSUNNY   88  39  17 W14G22    30.02S
TETERBORO      SUNNY     88  40  18 SW13      30.00S
CALDWELL       SUNNY     87  44  22 SW8       30.02S
MORRISTOWN     MOSUNNY   86  45  23 W10G16    30.03S
SOMERVILLE     SUNNY     86  45  23 VRB5      30.02S
SUSSEX         SUNNY     87  43  21 W3        30.03S
ANDOVER          N/A     85  44  23 S9        30.04S
TRENTON        SUNNY     86  46  24 W9G18     30.05S
MILLVILLE      MOSUNNY   84  50  30 SW9       30.09F
ATLANTIC CITY  MOSUNNY   86  46  24 SW12G21   30.08S
WRIGHTSTOWN    SUNNY     85  45  24 W15       30.03F
TOMS RIVER     SUNNY     86  37  17 W14G20    30.06S
BELMAR         SUNNY     86  44  23 W13       30.07R
$$

PAZ047>061-062-071-252300-
EASTERN PENNSYLVANIA

CITY           SKY/WX    TMP DP  RH WIND       PRES   REMARKS
PHILADELPHIA   PTSUNNY   87  46  24 SW13      30.07F
ALLENTOWN      SUNNY     85  49  28 W14G23    30.05S
SCRANTON       MOSUNNY   84  47  27 SW9G18    30.05S
$$

CTZ002-004>006-009-010-012-RIZ004-006-007-MAZ004-011-015-252300-
SOUTHERN NEW ENGLAND
 IN CT

CITY           SKY/WX    TMP DP  RH WIND       PRES   REMARKS
BRADLEY INTL   PTSUNNY   87  46  24 W10       29.97S
HARTFORD       SUNNY     90  46  21 NW8       29.97F
DANBURY        SUNNY     85  40  20 W8        30.02F
WTRBRY/OXFORD  SUNNY     84  43  23 W7        30.05S
BRIDGEPORT     SUNNY     79  50  36 SW6       30.01S
MERIDEN        SUNNY     87  46  24 SW5       29.99F
NEW HAVEN      SUNNY     76  50  40 VRB7      30.01S
CHESTER        FAIR      84  46  26 SW8       30.02S
GROTON         SUNNY     76  54  46 SW10      29.99S
WILLIMANTIC    SUNNY     89  43  20 W9G16     29.98S

 IN RI

CITY           SKY/WX    TMP DP  RH WIND       PRES   REMARKS
PROVIDENCE     MOSUNNY   88  42  20 W15G21    29.96F
BLOCK ISLAND   SUNNY     69  52  54 SW17      30.02R
WESTERLY       SUNNY     76  48  37 SW12      30.00S

 IN MA

CITY           SKY/WX    TMP DP  RH WIND       PRES   REMARKS
BOSTON         MOSUNNY   88  43  20 W15G21    29.93S
WORCESTER      SUNNY     81  42  25 W14       30.01R
WESTFIELD      CLOUDY    85  46  25 NW10      29.98S
PROVINCETOWN   CLOUDY    73  56  54 S12       29.95F
NANTUCKET      SUNNY     61  53  75 SW9       30.00F
$$

ANZ330-335-338-340-345-350-353-355-252300-
COASTAL MARINE OBSERVATIONS


STATION/POSITION TIME  SKY/WX   TEMP    WIND        PRES    VSBY  WAVE
                                AIR SEA DIR/SP/G                  HT/PER
                 (UTC)          (F)     (DEG/KT/KT) (MB)    (MI)  (FT/S)
NY HARB ENTRANCE 2050            66 61  200/ 10/ 12 1017.1          2/ 8
20S FIRE ISLAND  2050            63 58  220/ 14/ 16 1017.2          3/ 8
GREAT SOUTH BAY  2100            69 66  220/ 12/ 14   N/A
23 SSW MONTAUK P 2150            60 56  230/ 12/ 14 1016.6          3/ 6
15 E BARNEGAT LI NOT AVBL
HUDSON CANYON    2050            60 56              1018.6          3/ 6
KINGS POINT      2100            82 61              1016.2
EXECUTION ROCKS  NOT AVBL
CENTRAL LI SOUND 2100            68     230/ 12/ 12   N/A           1/ 2
EASTERN LI SOUND 2100            60 53  260/  8/  8   N/A
ROBBINS REEF     2118            86     260/ 15/ 18 1016.0
$$


>>>>>>>>>>>>>>>>>>>>>>>>>>>> KEY <<<<<<<<<<<<<<<<<<<<<<<<<<<
>                                                          <
>     SKY/WX - SKY CONDITION/PRESENT WEATHER               <
>     TMP    - TEMPERATURE IN FAHRENHEIT                   <
>     DP     - DEWPOINT IN FAHRENHEIT                      <
>     RH     - RELATIVE HUMIDITY IN PERCENT                <
>     WIND   - DIRECTION AND SPEED IN MPH                  <
>     PRES   - MEAN SEA LEVEL PRESSURE IN INCHES OF HG     <
>     WCI    - WIND CHILL INDEX                            <
>     VSB    - VISIBILITY IN MILES                         <
>     HX     - HEAT INDEX                                  <
>     TC     - TEMPERATURE IN CELSIUS                      <
>     VRB    - VARIABLE WIND DIRECTION                     <
>                                                          <
>>>>>>>>>>>>>>>>>>>>>>>>>>>> KEY <<<<<<<<<<<<<<<<<<<<<<<<<<<





USA.gov is the U.S. government's official web portal to all federal, state and local government web resources and services.